Time,TemperatureF,DewpointF,PressureIn,WindDirection,WindDirectionDegrees,WindSpeedMPH,WindSpeedGustMPH,Humidity,HourlyPrecipIn,Conditions,Clouds,dailyrainin,SoftwareType,DateUTC
2013-08-26 00:00:00,78.0,-99.9,-100.00,WNW,282,13.0,17.0,-999,-99.99,,,-99.99,,2013-08-26 06:00:00,
2013-08-26 00:52:00,78.0,-99.9,-100.00,WNW,282,13.0,17.0,-999,-99.99,,,-99.99,,2013-08-26 06:52:00,
2013-08-26 01:00:00,75.0,-99.9,-100.00,WSW,251,7.0,10.0,-999,-99.99,,,-99.99,,2013-08-26 07:00:00,
2013-08-26 01:53:00,75.0,-99.9,-100.00,WSW,251,7.0,10.0,-999,-99.99,,,-99.99,,2013-08-26 07:53:00,
2013-08-26 02:00:00,75.0,-99.9,-100.00,WNW,292,4.0,8.0,-999,-99.99,,,-99.99,,2013-08-26 08:00:00,
2013-08-26 02:52:00,75.0,-99.9,-100.00,WNW,292,4.0,8.0,-999,-99.99,,,-99.99,,2013-08-26 08:52:00,
2013-08-26 03:00:00,73.0,-99.9,-100.00,SW,225,5.0,10.0,-999,-99.99,,,-99.99,,2013-08-26 09:00:00,
2013-08-26 03:54:00,73.0,-99.9,-100.00,SW,225,5.0,10.0,-999,-99.99,,,-99.99,,2013-08-26 09:54:00,
2013-08-26 04:00:00,73.0,-99.9,-100.00,SSW,202,10.0,19.0,-999,-99.99,,,-99.99,,2013-08-26 10:00:00,
2013-08-26 04:52:00,73.0,-99.9,-100.00,SSW,202,10.0,19.0,-999,-99.99,,,-99.99,,2013-08-26 10:52:00,
2013-08-26 05:00:00,71.0,-99.9,-100.00,SW,215,7.0,11.0,-999,-99.99,,,-99.99,,2013-08-26 11:00:00,
2013-08-26 05:52:00,71.0,-99.9,-100.00,SW,215,7.0,11.0,-999,-99.99,,,-99.99,,2013-08-26 11:52:00,
2013-08-26 06:00:00,69.0,-99.9,-100.00,West,267,7.0,12.0,-999,-99.99,,,-99.99,,2013-08-26 12:00:00,
2013-08-26 06:52:00,69.0,-99.9,-100.00,West,267,7.0,12.0,-999,-99.99,,,-99.99,,2013-08-26 12:52:00,
2013-08-26 07:00:00,69.0,-99.9,-100.00,SW,234,2.0,9.0,-999,-99.99,,,-99.99,,2013-08-26 13:00:00,
2013-08-26 07:52:00,69.0,-99.9,-100.00,SW,234,2.0,9.0,-999,-99.99,,,-99.99,,2013-08-26 13:52:00,
2013-08-26 08:00:00,71.0,-99.9,-100.00,West,265,9.0,12.0,-999,-99.99,,,-99.99,,2013-08-26 14:00:00,
2013-08-26 08:52:00,71.0,-99.9,-100.00,West,265,9.0,12.0,-999,-99.99,,,-99.99,,2013-08-26 14:52:00,
2013-08-26 09:00:00,75.0,-99.9,-100.00,West,266,4.0,11.0,-999,-99.99,,,-99.99,,2013-08-26 15:00:00,
2013-08-26 09:59:00,75.0,-99.9,-100.00,West,266,4.0,11.0,-999,-99.99,,,-99.99,,2013-08-26 15:59:00,
2013-08-26 10:00:00,82.0,-99.9,-100.00,NW,307,3.0,8.0,-999,-99.99,,,-99.99,,2013-08-26 16:00:00,
2013-08-26 10:59:00,82.0,-99.9,-100.00,NW,307,3.0,8.0,-999,-99.99,,,-99.99,,2013-08-26 16:59:00,
2013-08-26 11:00:00,87.0,-99.9,-100.00,SW,225,3.0,6.0,-999,-99.99,,,-99.99,,2013-08-26 17:00:00,
2013-08-26 11:53:00,87.0,-99.9,-100.00,SW,225,3.0,6.0,-999,-99.99,,,-99.99,,2013-08-26 17:53:00,
2013-08-26 12:00:00,93.0,-99.9,-100.00,SSW,202,4.0,7.0,-999,-99.99,,,-99.99,,2013-08-26 18:00:00,
2013-08-26 12:52:00,93.0,-99.9,-100.00,SSW,202,4.0,7.0,-999,-99.99,,,-99.99,,2013-08-26 18:52:00,
2013-08-26 13:00:00,96.0,-99.9,-100.00,SSW,195,9.0,12.0,-999,-99.99,,,-99.99,,2013-08-26 19:00:00,
2013-08-26 13:52:00,96.0,-99.9,-100.00,SSW,195,9.0,12.0,-999,-99.99,,,-99.99,,2013-08-26 19:52:00,
2013-08-26 14:00:00,96.0,-99.9,-100.00,WNW,282,7.0,10.0,-999,-99.99,,,-99.99,,2013-08-26 20:00:00,
2013-08-26 14:52:00,96.0,-99.9,-100.00,WNW,282,7.0,10.0,-999,-99.99,,,-99.99,,2013-08-26 20:52:00,
2013-08-26 15:00:00,98.0,-99.9,-100.00,SSE,163,9.0,11.0,-999,-99.99,,,-99.99,,2013-08-26 21:00:00,
2013-08-26 15:55:00,98.0,-99.9,-100.00,SSE,163,9.0,11.0,-999,-99.99,,,-99.99,,2013-08-26 21:55:00,
2013-08-26 17:00:00,96.0,-99.9,-100.00,East,84,7.0,12.0,-999,-99.99,,,-99.99,,2013-08-26 23:00:00,
2013-08-26 17:52:00,96.0,-99.9,-100.00,East,84,7.0,12.0,-999,-99.99,,,-99.99,,2013-08-26 23:52:00,
2013-08-26 18:00:00,95.0,-99.9,-100.00,ENE,76,8.0,10.0,-999,-99.99,,,-99.99,,2013-08-27 00:00:00,
2013-08-26 18:52:00,95.0,-99.9,-100.00,ENE,76,8.0,10.0,-999,-99.99,,,-99.99,,2013-08-27 00:52:00,
2013-08-26 19:00:00,91.0,-99.9,-100.00,East,80,6.0,13.0,-999,-99.99,,,-99.99,,2013-08-27 01:00:00,
2013-08-26 19:52:00,91.0,-99.9,-100.00,East,80,6.0,13.0,-999,-99.99,,,-99.99,,2013-08-27 01:52:00,
2013-08-26 20:00:00,86.0,-99.9,-100.00,ESE,114,4.0,6.0,-999,-99.99,,,-99.99,,2013-08-27 02:00:00,
2013-08-26 20:52:00,86.0,-99.9,-100.00,ESE,114,4.0,6.0,-999,-99.99,,,-99.99,,2013-08-27 02:52:00,
2013-08-26 21:00:00,82.0,-99.9,-100.00,SSE,156,3.0,4.0,-999,-99.99,,,-99.99,,2013-08-27 03:00:00,
2013-08-26 21:58:00,82.0,-99.9,-100.00,SSE,156,3.0,4.0,-999,-99.99,,,-99.99,,2013-08-27 03:58:00,
2013-08-26 22:00:00,80.0,-99.9,-100.00,SSW,202,7.0,12.0,-999,-99.99,,,-99.99,,2013-08-27 04:00:00,
2013-08-26 22:54:00,80.0,-99.9,-100.00,SSW,202,7.0,12.0,-999,-99.99,,,-99.99,,2013-08-27 04:54:00,
2013-08-26 23:00:00,78.0,-99.9,-100.00,SSW,211,2.0,6.0,-999,-99.99,,,-99.99,,2013-08-27 05:00:00,
2013-08-26 23:52:00,78.0,-99.9,-100.00,SSW,211,2.0,6.0,-999,-99.99,,,-99.99,,2013-08-27 05:52:00,